Terug naar catalogus

OPS 3662

VELA 3

ActiefMilitairHEO
NORAD 836·PAYLOAD·🇺🇸 United States

Gelanceerd Jul 17, 1964 vanaf Cape Canaveral Space Force Station

Loading…

Volgende Passages (komende 24 uur)

TLE

VersSource: Space-Track

Epoch: Sep 16, 2026, 11:03 UTC

1 00836U 64040A   26259.46110367  .00000214  00000-0  00000-0 0  9990
2 00836  53.1891 116.3550 5372360 273.2877   0.6138  0.23920346 11222

Volg OPS 3662 in realtime met AllMySat

Download on the App Store